Home > Weather > Fürstenfeld > Past weeks

Flag for Austria Past Weather in Fürstenfeld, Styria, Austria — Yesterday and Last 2 Weeks

Now
78 °F

Warm.


Feels Like: 79 °F
Forecast: 53 / 79 °F
Wind: 1 mph from Northeast

Location: Murska Sobota

Current Time: Aug 25, 2016 at 1:46:51 PM

Latest Report: Aug 25, 2016 at 1:00 PM


Visibility: N/A

Pressure: 30.19 "Hg

Humidity: 54%

Dew Point: 60 °F

Location of FürstenfeldLocation

Past Weather in Fürstenfeld — Graph

°F

Fürstenfeld Temperature Yesterday

Maximum temperature yesterday: 80 °F (at 3:00 PM)
Minimum temperature yesterday: 56 °F (at 6:00 AM)
Average temperature yesterday: 68 °F

High & Low Weather Summary for the Past Weeks

 TemperatureHumidityPressure
High83 °F (Aug 15, 2:00 PM)100% (Aug 16, 7:00 AM)30.32 "Hg (Aug 16, 7:00 AM)
Low48 °F (Aug 12, 6:00 AM)41% (Aug 12, 2:00 PM)29.83 "Hg (Aug 18, 6:00 PM)
Average65 °F80%30.11 "Hg
* Reported Aug 10 12:00 PM — Aug 25 12:00 PM, Fürstenfeld, Weather by CustomWeather, © 2016

Note: Actual official high and low records may vary slightly from our data, if they occured in-between our weather recording intervals... More about our weather records

Advertising

Fürstenfeld Weather History for the Previous 24 Hours

Scroll right to see more
 ConditionsComfort  
Time TempWeatherWind HumidityBarometerVisibility
12:00 PM
Thu, Aug 25
76 °FMild.1 mph56%30.20 "HgN/A
11:00 AM73 °FMild.1 mph60%30.22 "HgN/A
10:00 AM70 °FMild.1 mph62%30.22 "HgN/A
9:00 AM68 °FMild.2 mph70%30.22 "HgN/A
8:00 AM63 °FMild.1 mph88%30.23 "HgN/A
7:00 AM56 °FCool.No wind97%30.23 "HgN/A
6:00 AM55 °FCool.1 mph96%30.22 "HgN/A
5:00 AM57 °FCool.1 mph94%30.22 "HgN/A
4:00 AM58 °FCool.2 mph94%30.22 "HgN/A
3:00 AM59 °FCool.2 mph94%30.22 "HgN/A
2:00 AM59 °FCool.1 mph93%30.22 "HgN/A
1:00 AM60 °FCool.1 mph92%30.23 "HgN/A
12:00 AM61 °FCool.1 mph88%30.23 "HgN/A
11:00 PM
Wed, Aug 24
66 °FMild.2 mph73%30.23 "HgN/A
10:00 PM62 °FCool.1 mph86%30.23 "HgN/A
9:00 PM65 °FMild.2 mph79%30.23 "HgN/A
8:00 PM71 °FMild.1 mph65%30.20 "HgN/A
7:00 PM76 °FMild.3 mph53%30.19 "HgN/A
6:00 PM79 °FWarm.3 mph48%30.20 "HgN/A
5:00 PM79 °FWarm.5 mph45%30.20 "HgN/A
3:00 PM80 °FScattered clouds.5 mph48%30.21 "Hg19 mi
2:00 PM78 °FWarm.5 mph48%30.22 "HgN/A
1:00 PM79 °FWarm.3 mph52%30.23 "HgN/A
Weather by CustomWeather, © 2016

See weather overviewHow to use our weather pages